TimeEST,TemperatureF,Dew PointF,Humidity,Sea Level PressureIn,VisibilityMPH,Wind Direction,Wind SpeedMPH,Gust SpeedMPH,PrecipitationIn,Events,Conditions,WindDirDegrees,DateUTC
12:53 AM,39.0,24.1,55,29.91,10.0,ESE,8.1,-,0.00,,Overcast,120,2013-03-05 05:53:00
2:53 AM,39.0,26.1,60,29.88,10.0,ESE,8.1,-,0.00,,Overcast,110,2013-03-05 07:53:00
3:53 AM,39.0,26.1,60,29.85,10.0,ESE,6.9,-,N/A,,Overcast,110,2013-03-05 08:53:00
4:53 AM,39.0,26.1,60,29.84,10.0,ESE,10.4,-,N/A,,Overcast,120,2013-03-05 09:53:00
5:08 AM,39.2,26.6,61,29.82,10.0,ESE,9.2,-,N/A,,Overcast,110,2013-03-05 10:08:00
5:53 AM,39.0,26.1,60,29.83,10.0,ESE,8.1,-,N/A,,Overcast,120,2013-03-05 10:53:00
6:53 AM,39.0,26.1,60,29.83,10.0,ESE,8.1,-,N/A,,Overcast,110,2013-03-05 11:53:00
8:53 AM,37.9,28.9,70,29.81,8.0,ESE,8.1,-,0.00,Rain,Light Rain,120,2013-03-05 13:53:00
9:01 AM,37.4,28.4,70,29.79,7.0,ESE,5.8,-,0.00,Rain,Light Rain,120,2013-03-05 14:01:00
9:53 AM,37.0,30.9,79,29.78,10.0,ESE,5.8,-,0.01,,Overcast,120,2013-03-05 14:53:00
10:43 AM,35.6,32.0,87,29.75,1.8,ESE,10.4,-,N/A,,Overcast,120,2013-03-05 15:43:00
10:53 AM,36.0,33.1,89,29.75,1.5,ESE,8.1,-,N/A,,Overcast,120,2013-03-05 15:53:00
11:10 AM,35.6,33.8,93,29.74,1.2,SE,5.8,-,N/A,,Overcast,130,2013-03-05 16:10:00
11:53 AM,37.0,34.0,89,29.73,1.2,East,6.9,-,N/A,,Overcast,100,2013-03-05 16:53:00
12:53 PM,37.0,35.1,93,29.71,1.2,East,4.6,-,N/A,,Overcast,100,2013-03-05 17:53:00
1:05 PM,37.4,35.6,93,29.69,0.8,ESE,4.6,-,0.01,,Overcast,110,2013-03-05 18:05:00
1:25 PM,37.4,35.6,93,29.67,1.0,Calm,Calm,-,0.01,,Overcast,0,2013-03-05 18:25:00
1:53 PM,37.9,37.0,97,29.68,1.5,Calm,Calm,-,0.02,Rain,Light Rain,0,2013-03-05 18:53:00
2:35 PM,37.4,35.6,93,29.65,2.5,Calm,Calm,-,0.03,Rain,Light Rain,0,2013-03-05 19:35:00
2:42 PM,37.4,35.6,93,29.65,4.0,Calm,Calm,-,0.03,Rain,Light Rain,0,2013-03-05 19:42:00
2:53 PM,37.9,36.0,93,29.66,5.0,WNW,5.8,-,0.04,Rain,Light Rain,290,2013-03-05 19:53:00
3:51 PM,33.8,32.0,93,29.67,1.8,West,10.4,-,0.09,Snow,Light Snow,280,2013-03-05 20:51:00
3:53 PM,34.0,30.9,89,29.68,1.2,West,10.4,-,0.09,Snow,Light Snow,280,2013-03-05 20:53:00
4:03 PM,33.8,30.2,87,29.67,0.5,WNW,10.4,17.3,0.01,Fog-Snow,Snow,290,2013-03-05 21:03:00
4:53 PM,33.1,30.0,89,29.70,0.5,WNW,13.8,25.3,0.04,Fog-Snow,Snow,290,2013-03-05 21:53:00
5:02 PM,33.8,30.2,87,29.68,0.2,WNW,17.3,24.2,0.01,Fog-Snow,Heavy Snow,290,2013-03-05 22:02:00
5:53 PM,32.0,28.9,88,29.72,0.2,West,15.0,25.3,0.03,Fog-Snow,Snow,280,2013-03-05 22:53:00
6:11 PM,32.0,28.4,87,29.71,0.5,WNW,13.8,29.9,0.00,Fog-Snow,Light Snow,290,2013-03-05 23:11:00
6:30 PM,30.2,28.4,93,29.73,0.5,WNW,19.6,29.9,0.01,Fog-Snow,Light Snow,300,2013-03-05 23:30:00
6:33 PM,30.2,28.4,93,29.73,0.5,WNW,13.8,29.9,0.01,Fog-Snow,Light Snow,300,2013-03-05 23:33:00
6:42 PM,30.2,26.6,86,29.74,0.5,WNW,19.6,33.4,0.01,Fog-Snow,Light Snow,300,2013-03-05 23:42:00
6:53 PM,30.9,27.0,85,29.76,0.8,WNW,18.4,29.9,0.01,Snow,Light Snow,290,2013-03-05 23:53:00
7:02 PM,30.2,28.4,93,29.75,0.8,WNW,19.6,32.2,0.00,Snow,Light Snow,290,2013-03-06 00:02:00
7:15 PM,30.2,26.6,86,29.75,0.8,WNW,23.0,34.5,0.00,Snow,Light Snow,290,2013-03-06 00:15:00
7:25 PM,30.2,26.6,86,29.76,0.8,WNW,17.3,32.2,0.01,Snow,Light Snow,290,2013-03-06 00:25:00
7:36 PM,30.2,26.6,86,29.75,0.8,WNW,15.0,29.9,0.01,Snow,Light Snow,290,2013-03-06 00:36:00
7:53 PM,30.0,27.0,88,29.78,0.8,WNW,24.2,43.7,0.01,Snow,Light Snow,290,2013-03-06 00:53:00
8:29 PM,30.2,26.6,86,29.77,0.8,WNW,17.3,29.9,0.00,Snow,Light Snow,290,2013-03-06 01:29:00
8:53 PM,28.9,25.0,85,29.78,0.8,West,19.6,34.5,0.01,Snow,Light Snow,280,2013-03-06 01:53:00
8:59 PM,28.4,24.8,86,29.76,1.0,WNW,20.7,29.9,0.00,Snow,Light Snow,290,2013-03-06 01:59:00
9:53 PM,28.9,25.0,85,29.78,1.0,WNW,13.8,28.8,0.00,Snow,Light Snow,290,2013-03-06 02:53:00
10:53 PM,28.9,25.0,85,29.79,1.2,WNW,15.0,21.9,0.00,Snow,Light Snow,290,2013-03-06 03:53:00
11:44 PM,28.4,26.6,93,29.77,2.0,WNW,13.8,23.0,0.00,Snow,Light Snow,290,2013-03-06 04:44:00
11:53 PM,28.9,26.1,89,29.79,2.5,WNW,11.5,19.6,0.00,Snow,Light Snow,300,2013-03-06 04:53:00